カタログに戻る

STARLINK-31720

運用中通信VLEO
NORAD 59497·PAYLOAD·🇺🇸 United States

打ち上げ Apr 13, 2024 から Cape Canaveral Space Force Station

Loading…

次のパス (今後24時間)

TLE

最新Source: CelesTrak SupGP

元期: Sep 15, 2026, 01:52 UTC

1 59497C 24071P   26258.07826389  .00025495  00000+0  92344-3 0  2581
2 59497  43.0018 350.6480 0001595 263.3760 134.9658 15.27565002    15

AllMySatでSTARLINK-31720をリアルタイム追跡

Download on the App Store